VRE706 DIAP-GOBD

Flight info

Callsign VRE706
Flight time N/A
Altitude 38000
Route ARLIX UR979 ERIDI ERIDI1A
Aircraft A20N/M-SDE3FGHIRWY/LB1

Departure

Time N/A
Airport Félix-Houphouët-Boigny International Airport (DIAP)

Arrival

Time 2026-05-01 08:46
Airport Blaise Diagne International Airport (GOBD)
Time Latitude Longitude Altitude Speed Heading
2026-05-01 07:23 9.15533 -9.42939 38010 ft 451 kts 306°
2026-05-01 07:24 9.21080 -9.50638 38005 ft 451 kts 306°
2026-05-01 07:24 9.24772 -9.55767 38003 ft 451 kts 306°
2026-05-01 07:25 9.28461 -9.60895 37996 ft 450 kts 306°
2026-05-01 07:25 9.32128 -9.65992 37996 ft 450 kts 306°
2026-05-01 07:26 9.35815 -9.71121 37990 ft 450 kts 306°
2026-05-01 07:26 9.39507 -9.76258 37994 ft 450 kts 306°
2026-05-01 07:27 9.43196 -9.81392 37993 ft 451 kts 307°
2026-05-01 07:27 9.46863 -9.86499 37994 ft 451 kts 307°
2026-05-01 07:28 9.50561 -9.91650 37996 ft 451 kts 307°
2026-05-01 07:28 9.54250 -9.96792 37998 ft 451 kts 307°
2026-05-01 07:29 9.57942 -10.01940 38002 ft 451 kts 306°
2026-05-01 07:29 9.61633 -10.07089 37999 ft 451 kts 306°
2026-05-01 07:30 9.65287 -10.12211 37997 ft 451 kts 306°
2026-05-01 07:30 9.68963 -10.17366 37989 ft 451 kts 306°
2026-05-01 07:31 9.72645 -10.22530 37989 ft 451 kts 306°
2026-05-01 07:32 9.81841 -10.35435 37994 ft 452 kts 306°
2026-05-01 07:33 9.87362 -10.43190 37996 ft 452 kts 306°
2026-05-01 07:33 9.92852 -10.50906 37999 ft 452 kts 306°
2026-05-01 07:34 9.98369 -10.58665 38001 ft 452 kts 306°
2026-05-01 07:35 10.02042 -10.63833 38005 ft 451 kts 306°
2026-05-01 07:35 10.05715 -10.69004 38005 ft 451 kts 306°
2026-05-01 07:36 10.09356 -10.74198 38002 ft 451 kts 303°
2026-05-01 07:36 10.12644 -10.79620 38000 ft 451 kts 301°
2026-05-01 07:37 10.17579 -10.87747 38001 ft 450 kts 301°
2026-05-01 07:37 10.20864 -10.93162 38004 ft 450 kts 301°
2026-05-01 07:38 10.24146 -10.98575 38003 ft 450 kts 302°
2026-05-01 07:39 10.29711 -11.06181 38003 ft 449 kts 307°
2026-05-01 07:39 10.35424 -11.13720 38006 ft 448 kts 307°
2026-05-01 07:40 10.39227 -11.18736 38009 ft 448 kts 307°
2026-05-01 07:40 10.43028 -11.23751 38010 ft 447 kts 307°
2026-05-01 07:41 10.46823 -11.28759 38010 ft 447 kts 307°
2026-05-01 07:42 10.52511 -11.36270 38016 ft 446 kts 307°
2026-05-01 07:42 10.56293 -11.41268 38013 ft 445 kts 307°
2026-05-01 07:43 10.60070 -11.46261 38013 ft 445 kts 307°
2026-05-01 07:43 10.65701 -11.53708 38008 ft 444 kts 307°
2026-05-01 07:44 10.73019 -11.63823 38006 ft 443 kts 305°
2026-05-01 07:45 10.76024 -11.68042 38006 ft 443 kts 305°
2026-05-01 07:45 10.79651 -11.73112 38009 ft 443 kts 305°
2026-05-01 07:46 10.83277 -11.78179 38006 ft 442 kts 305°
2026-05-01 07:47 10.88692 -11.85749 38010 ft 442 kts 305°
2026-05-01 07:47 10.92312 -11.90813 38014 ft 442 kts 305°
2026-05-01 07:48 10.97741 -11.98412 38015 ft 442 kts 305°
2026-05-01 07:48 11.01361 -12.03482 38018 ft 442 kts 305°
2026-05-01 07:49 11.06786 -12.11085 38023 ft 442 kts 305°
2026-05-01 07:50 11.10402 -12.16157 38026 ft 442 kts 305°
2026-05-01 07:50 11.15823 -12.23764 38022 ft 443 kts 305°
2026-05-01 07:51 11.19437 -12.28838 38026 ft 443 kts 305°
2026-05-01 07:52 11.24865 -12.36463 38021 ft 443 kts 304°
2026-05-01 07:52 11.28411 -12.41589 38021 ft 443 kts 303°
2026-05-01 07:53 11.33642 -12.49299 38009 ft 443 kts 303°
2026-05-01 07:53 11.37159 -12.54460 38008 ft 443 kts 303°
2026-05-01 07:55 11.45953 -12.67356 37997 ft 443 kts 303°
2026-05-01 07:56 11.54747 -12.80269 37979 ft 443 kts 303°
2026-05-01 07:57 11.60019 -12.88020 37970 ft 443 kts 303°
2026-05-01 07:58 11.67023 -12.98324 37961 ft 443 kts 303°
2026-05-01 07:59 11.74048 -13.08671 37961 ft 443 kts 303°
2026-05-01 08:00 11.85263 -13.23708 37957 ft 444 kts 307°
2026-05-01 08:01 11.93055 -13.33528 37957 ft 444 kts 307°
2026-05-01 08:02 11.98870 -13.40860 37954 ft 445 kts 307°
2026-05-01 08:03 12.04712 -13.48233 37956 ft 445 kts 307°
2026-05-01 08:03 12.10556 -13.55613 37955 ft 445 kts 307°
2026-05-01 08:04 12.18319 -13.65426 37959 ft 445 kts 307°
2026-05-01 08:05 12.24153 -13.72807 37956 ft 445 kts 307°
2026-05-01 08:06 12.29674 -13.80415 37958 ft 443 kts 303°
2026-05-01 08:07 12.36723 -13.90764 37956 ft 443 kts 303°
2026-05-01 08:08 12.41979 -13.98493 37956 ft 443 kts 303°
2026-05-01 08:09 12.49017 -14.08854 37954 ft 443 kts 303°
2026-05-01 08:09 12.52512 -14.14003 37952 ft 442 kts 303°
2026-05-01 08:10 12.59530 -14.24351 37952 ft 442 kts 303°
2026-05-01 08:11 12.66545 -14.34708 37943 ft 442 kts 303°
2026-05-01 08:12 12.71800 -14.42472 37945 ft 442 kts 303°
2026-05-01 08:13 12.77052 -14.50239 37944 ft 442 kts 303°
2026-05-01 08:13 12.82301 -14.58010 37951 ft 442 kts 303°
2026-05-01 08:14 12.85801 -14.63195 37939 ft 442 kts 303°
2026-05-01 08:14 12.89301 -14.68382 37931 ft 442 kts 302°
2026-05-01 08:15 12.94528 -14.76134 37940 ft 443 kts 302°
2026-05-01 08:16 12.98031 -14.81334 37939 ft 443 kts 302°
2026-05-01 08:16 13.01532 -14.86534 37938 ft 443 kts 302°
2026-05-01 08:17 13.05033 -14.91736 37940 ft 443 kts 302°
2026-05-01 08:17 13.08532 -14.96938 37947 ft 443 kts 302°
2026-05-01 08:18 13.12029 -15.02140 37951 ft 443 kts 302°
2026-05-01 08:19 13.19017 -15.12547 37944 ft 443 kts 302°
2026-05-01 08:19 13.22360 -15.17797 37944 ft 442 kts 300°
2026-05-01 08:20 13.25604 -15.23153 37941 ft 442 kts 300°
2026-05-01 08:20 13.28876 -15.28499 37940 ft 442 kts 300°
2026-05-01 08:21 13.32155 -15.33828 37937 ft 441 kts 300°
2026-05-01 08:21 13.35434 -15.39156 37931 ft 441 kts 300°
2026-05-01 08:22 13.38710 -15.44484 37932 ft 441 kts 300°
2026-05-01 08:22 13.41966 -15.49783 37937 ft 441 kts 300°
2026-05-01 08:23 13.45235 -15.55105 37931 ft 440 kts 300°
2026-05-01 08:23 13.48505 -15.60433 37642 ft 441 kts 300°
2026-05-01 08:23 13.50148 -15.63113 36988 ft 444 kts 300°
2026-05-01 08:24 13.51806 -15.65819 36042 ft 451 kts 301°
2026-05-01 08:24 13.53494 -15.68576 34964 ft 460 kts 301°
2026-05-01 08:24 13.55210 -15.71379 34150 ft 463 kts 301°
2026-05-01 08:24 13.56936 -15.74196 33292 ft 465 kts 301°
2026-05-01 08:25 13.58654 -15.77003 32499 ft 464 kts 301°
2026-05-01 08:25 13.60378 -15.79812 31695 ft 464 kts 302°
2026-05-01 08:25 13.62106 -15.82627 30873 ft 465 kts 302°
2026-05-01 08:25 13.63800 -15.85396 30376 ft 459 kts 302°
2026-05-01 08:26 13.65484 -15.88153 29761 ft 454 kts 302°
2026-05-01 08:26 13.67157 -15.90895 29205 ft 448 kts 302°
2026-05-01 08:26 13.68802 -15.93593 28629 ft 442 kts 302°
2026-05-01 08:26 13.70426 -15.96255 28062 ft 437 kts 302°
2026-05-01 08:27 13.72035 -15.98891 27487 ft 432 kts 302°
2026-05-01 08:27 13.73626 -16.01497 26926 ft 428 kts 302°
2026-05-01 08:27 13.75182 -16.04045 26365 ft 424 kts 302°
2026-05-01 08:27 13.76744 -16.06605 25798 ft 421 kts 302°
2026-05-01 08:28 13.78297 -16.09150 25205 ft 419 kts 302°
2026-05-01 08:28 13.79837 -16.11675 24668 ft 416 kts 302°
2026-05-01 08:28 13.81373 -16.14193 24116 ft 413 kts 302°
2026-05-01 08:28 13.82895 -16.16688 23556 ft 411 kts 302°
2026-05-01 08:29 13.84407 -16.19167 22987 ft 407 kts 302°
2026-05-01 08:29 13.85904 -16.21623 22438 ft 403 kts 302°
2026-05-01 08:29 13.87386 -16.24054 21883 ft 399 kts 302°
2026-05-01 08:29 13.88853 -16.26459 21350 ft 395 kts 302°
2026-05-01 08:30 13.90310 -16.28850 20804 ft 392 kts 302°
2026-05-01 08:30 13.91756 -16.31224 20261 ft 390 kts 302°
2026-05-01 08:30 13.93194 -16.33585 19682 ft 389 kts 302°
2026-05-01 08:30 13.94624 -16.35933 19145 ft 387 kts 301°
2026-05-01 08:31 13.96033 -16.38249 18622 ft 386 kts 301°
2026-05-01 08:31 13.97458 -16.40592 18070 ft 385 kts 301°
2026-05-01 08:31 13.98875 -16.42918 17517 ft 382 kts 301°
2026-05-01 08:31 14.00283 -16.45224 16982 ft 379 kts 301°
2026-05-01 08:32 14.01676 -16.47521 16442 ft 377 kts 301°
2026-05-01 08:32 14.03063 -16.49797 15910 ft 374 kts 301°
2026-05-01 08:32 14.03975 -16.51300 15557 ft 373 kts 301°
2026-05-01 08:32 14.05343 -16.53560 15027 ft 371 kts 301°
2026-05-01 08:33 14.06707 -16.55814 14488 ft 370 kts 300°
2026-05-01 08:33 14.08066 -16.58058 13939 ft 369 kts 300°
2026-05-01 08:33 14.09420 -16.60294 13389 ft 367 kts 300°
2026-05-01 08:33 14.10762 -16.62512 12890 ft 363 kts 301°
2026-05-01 08:34 14.12093 -16.64712 12377 ft 361 kts 301°
2026-05-01 08:34 14.13418 -16.66894 11855 ft 359 kts 301°
2026-05-01 08:34 14.14737 -16.69068 11353 ft 357 kts 301°
2026-05-01 08:34 14.16046 -16.71237 10841 ft 356 kts 302°
2026-05-01 08:35 14.17358 -16.73408 10298 ft 356 kts 302°
2026-05-01 08:35 14.18650 -16.75545 10109 ft 344 kts 302°
2026-05-01 08:35 14.19892 -16.77598 9985 ft 331 kts 302°
2026-05-01 08:35 14.21092 -16.79582 9767 ft 322 kts 302°
2026-05-01 08:36 14.22270 -16.81525 9505 ft 314 kts 302°
2026-05-01 08:36 14.23421 -16.83421 9173 ft 311 kts 302°
2026-05-01 08:36 14.24565 -16.85304 8768 ft 309 kts 302°
2026-05-01 08:36 14.25705 -16.87183 8366 ft 308 kts 302°
2026-05-01 08:37 14.26839 -16.89053 7963 ft 307 kts 302°
2026-05-01 08:37 14.27956 -16.90896 7563 ft 307 kts 302°
2026-05-01 08:37 14.29089 -16.92764 7149 ft 307 kts 303°
2026-05-01 08:37 14.30222 -16.94631 6734 ft 307 kts 303°
2026-05-01 08:38 14.31345 -16.96486 6318 ft 302 kts 303°
2026-05-01 08:38 14.32439 -16.98296 5917 ft 293 kts 303°
2026-05-01 08:38 14.32801 -16.98896 5787 ft 292 kts 303°
2026-05-01 08:38 14.32968 -16.99174 5724 ft 292 kts 303°
2026-05-01 08:39 14.34040 -17.00950 5323 ft 291 kts 303°
2026-05-01 08:39 14.35108 -17.02722 4930 ft 290 kts 304°
2026-05-01 08:39 14.36153 -17.04455 4657 ft 284 kts 304°
2026-05-01 08:39 14.37291 -17.06054 4539 ft 268 kts 321°
2026-05-01 08:40 14.40578 -17.07091 4060 ft 246 kts
2026-05-01 08:40 14.42276 -17.07044 3769 ft 243 kts
2026-05-01 08:40 14.43956 -17.07064 3499 ft 239 kts
2026-05-01 08:41 14.45590 -17.07079 3222 ft 237 kts
2026-05-01 08:41 14.47201 -17.07094 3114 ft 226 kts
2026-05-01 08:41 14.48774 -17.07113 3040 ft 221 kts
2026-05-01 08:41 14.50267 -17.07121 2990 ft 211 kts
2026-05-01 08:42 14.51696 -17.07139 2877 ft 202 kts
2026-05-01 08:42 14.53106 -17.07150 2613 ft 202 kts
2026-05-01 08:42 14.54492 -17.07163 2344 ft 196 kts
2026-05-01 08:42 14.55826 -17.07174 2124 ft 182 kts
2026-05-01 08:43 14.57010 -17.07188 1889 ft 161 kts
2026-05-01 08:43 14.58073 -17.07197 1688 ft 144 kts
2026-05-01 08:43 14.59023 -17.07208 1516 ft 129 kts
2026-05-01 08:43 14.59865 -17.07218 1349 ft 113 kts
2026-05-01 08:44 14.60684 -17.07221 1203 ft 118 kts
2026-05-01 08:44 14.61495 -17.07229 1057 ft 117 kts
2026-05-01 08:44 14.62323 -17.07237 918 ft 119 kts 360°
2026-05-01 08:44 14.63134 -17.07243 772 ft 116 kts
2026-05-01 08:45 14.63956 -17.07252 619 ft 118 kts
2026-05-01 08:45 14.64753 -17.07265 466 ft 111 kts
2026-05-01 08:45 14.65530 -17.07263 349 ft 112 kts
2026-05-01 08:45 14.66277 -17.07278 300 ft 95 kts 359°
2026-05-01 08:46 14.66767 -17.07284 302 ft 52 kts 360°
2026-05-01 08:46 14.67147 -17.07286 302 ft 27 kts 360°
2026-05-01 08:46 14.67298 -17.07286 301 ft 21 kts
2026-05-01 08:46 14.67479 -17.07287 299 ft 31 kts 360°
2026-05-01 08:47 14.67665 -17.07262 303 ft 24 kts 17°
2026-05-01 08:47 14.67785 -17.07198 301 ft 1 kts 32°
2026-05-01 08:47 14.67788 -17.07196 300 ft 2 kts 32°
2026-05-01 08:47 14.67811 -17.07181 300 ft 6 kts 32°
2026-05-01 08:48 14.67833 -17.07145 301 ft 7 kts 81°
2026-05-01 08:48 14.67804 -17.07103 301 ft 8 kts 168°
2026-05-01 08:48 14.67731 -17.07093 301 ft 13 kts 182°
2026-05-01 08:48 14.67636 -17.07096 301 ft 15 kts 181°
2026-05-01 08:49 14.67551 -17.07095 301 ft 3 kts 149°
2026-05-01 08:49 14.67538 -17.07068 301 ft 6 kts 106°
2026-05-01 08:49 14.67530 -17.07008 302 ft 11 kts 99°
2026-05-01 08:49 14.67476 -17.06979 305 ft 10 kts 174°
2026-05-01 08:50 14.67396 -17.06979 304 ft 13 kts 179°
2026-05-01 08:50 14.67293 -17.06980 302 ft 16 kts 182°
2026-05-01 08:50 14.67242 -17.06965 302 ft 4 kts 138°
2026-05-01 08:50 14.67226 -17.06943 302 ft 4 kts 125°
2026-05-01 08:51 14.67203 -17.06909 302 ft 8 kts 122°
2026-05-01 08:51 14.67187 -17.06882 305 ft 2 kts 124°
2026-05-01 08:51 14.67179 -17.06870 302 ft 0 kts 125°
2026-05-01 08:54 14.67179 -17.06871 302 ft 0 kts 125°
2026-05-01 09:03 14.67180 -17.06871 302 ft 0 kts 125°
2026-05-01 09:22 14.67180 -17.06872 302 ft 0 kts 125°